FW0292 Weather Reports


Display with metric or nautical units.
time (UTC)temp
F
wind
direction
speed
MPH
gust
MPH
rain 1hr
in
rain 24hr
in
rain mn
in
humidity
%
barometer
mb
20260510103502 63 17 8.0 21.0 0.00 0.00 0.00 59 1016.8
20260510103001 62 12 9.0 21.0 0.00 0.00 0.00 59 1016.9
20260510102502 62 9 9.0 22.0 0.00 0.00 0.00 62 1016.6
20260510102002 62 9 9.0 22.0 0.00 0.00 0.00 63 1016.6
20260510101502 61 10 9.0 18.0 0.00 0.00 0.00 63 1016.7
20260510101022 61 11 9.0 21.0 0.00 0.00 0.00 64 1016.8
20260510100502 60 14 9.0 21.0 0.00 0.00 0.00 64 1016.8
20260510100002 60 19 8.0 19.0 0.00 0.00 0.00 65 1016.9
20260510095502 60 24 8.0 20.0 0.00 0.00 0.00 65 1016.8
20260510095002 60 17 8.0 20.0 0.00 0.00 0.00 64 1016.9
20260510094501 61 5 9.0 22.0 0.00 0.00 0.00 64 1017.0
20260510094001 61 2 10.0 22.0 0.00 0.00 0.00 66 1016.9
20260510093501 60 10 8.0 17.0 0.00 0.00 0.00 66 1016.8
20260510093002 60 20 7.0 19.0 0.00 0.00 0.00 67 1016.8
20260510092502 59 16 8.0 19.0 0.00 0.00 0.00 68 1016.8
20260510092002 59 9 9.0 26.0 0.00 0.00 0.00 69 1016.9
20260510091522 58 7 9.0 26.0 0.00 0.00 0.00 69 1016.9
20260510091023 58 8 9.0 18.0 0.00 0.00 0.00 70 1017.1
20260510090502 57 9 8.0 17.0 0.00 0.00 0.00 70 1017.0
20260510090022 57 11 8.0 22.0 0.00 0.00 0.00 70 1016.9
20260510085501 57 16 9.0 22.0 0.00 0.00 0.00 70 1017.1
20260510085002 57 11 8.0 20.0 0.00 0.00 0.00 71 1017.0
20260510084523 57 6 8.0 20.0 0.00 0.00 0.00 71 1017.0
20260510084002 57 5 9.0 20.0 0.00 0.00 0.00 70 1017.1
20260510083501 57 8 9.0 20.0 0.00 0.00 0.00 71 1016.9
20260510083001 56 12 9.0 21.0 0.00 0.00 0.00 71 1017.0
20260510082502 56 9 9.0 23.0 0.00 0.00 0.00 72 1017.2
20260510082002 56 6 9.0 23.0 0.00 0.00 0.00 72 1017.1
20260510081502 55 6 8.0 19.0 0.00 0.00 0.00 72 1017.1
20260510081001 55 9 8.0 21.0 0.00 0.00 0.00 73 1017.1
20260510080523 55 8 9.0 22.0 0.00 0.00 0.00 73 1017.0
20260510080002 54 4 9.0 22.0 0.00 0.00 0.00 74 1017.2
20260510075502 54 8 8.0 17.0 0.00 0.00 0.00 74 1017.1
20260510075002 54 6 9.0 19.0 0.00 0.00 0.00 74 1017.1
20260510074502 54 7 9.0 19.0 0.00 0.00 0.00 74 1017.1
20260510074001 53 7 8.0 22.0 0.00 0.00 0.00 74 1017.1
20260510073522 53 10 7.0 22.0 0.00 0.00 0.00 74 1017.2
20260510073002 53 15 7.0 17.0 0.00 0.00 0.00 75 1017.3
20260510072502 53 16 7.0 17.0 0.00 0.00 0.00 75 1017.2
20260510072002 53 16 7.0 16.0 0.00 0.00 0.00 75 1017.1
20260510071502 52 8 8.0 16.0 0.00 0.00 0.00 76 1017.2
20260510071001 52 6 8.0 15.0 0.00 0.00 0.00 76 1017.4
20260510070501 52 14 7.0 15.0 0.00 0.00 0.00 77 1017.2
20260510070001 52 17 7.0 15.0 0.00 0.00 0.00 77 1017.2
20260510065502 51 17 7.0 15.0 0.00 0.00 0.00 77 1017.1
20260510065002 51 13 7.0 20.0 0.00 0.00 0.00 78 1017.0
20260510064523 51 12 8.0 20.0 0.00 0.00 0.00 77 1017.0
20260510064001 51 13 7.0 16.0 0.00 0.00 0.00 77 1016.9
20260510063502 50 13 7.0 18.0 0.00 0.00 0.00 77 1016.8
20260510063002 50 11 7.0 18.0 0.00 0.00 0.00 77 1016.7
20260510062502 50 11 7.0 17.0 0.00 0.00 0.00 77 1016.8
20260510062023 50 12 6.0 15.0 0.00 0.00 0.00 77 1016.9
20260510061502 50 10 7.0 17.0 0.00 0.00 0.00 77 1016.9
20260510061023 50 9 8.0 17.0 0.00 0.00 0.00 77 1016.9
20260510060502 50 11 7.0 17.0 0.00 0.00 0.00 77 1016.9
20260510060002 50 12 7.0 17.0 0.00 0.00 0.00 77 1016.9
20260510055523 50 10 7.0 19.0 0.00 0.00 0.00 77 1016.8
20260510055002 50 11 7.0 19.0 0.00 0.00 0.00 77 1016.8
20260510054523 50 13 7.0 18.0 0.00 0.00 0.00 77 1016.7
20260510054002 50 11 6.0 17.0 0.00 0.00 0.00 77 1016.7
20260510053502 50 8 7.0 16.0 0.00 0.00 0.00 77 1016.7
20260510053002 50 10 8.0 17.0 0.00 0.00 0.00 77 1016.8
20260510052502 50 8 8.0 19.0 0.00 0.00 0.00 77 1016.7
20260510052001 50 5 8.0 19.0 0.00 0.00 0.00 76 1016.8
20260510051502 50 6 8.0 18.0 0.00 0.00 0.00 76 1016.7
20260510051002 50 9 7.0 18.0 0.00 0.00 0.00 76 1016.9
20260510050502 50 9 7.0 16.0 0.00 0.00 0.00 76 1016.9
20260510050002 50 8 7.0 17.0 0.00 0.00 0.00 76 1016.8
20260510045502 50 10 7.0 17.0 0.00 0.00 0.00 75 1016.8
20260510045023 50 10 8.0 16.0 0.00 0.00 0.00 75 1016.8
20260510044502 50 9 8.0 18.0 0.00 0.00 0.00 75 1016.8
20260510044002 50 7 8.0 18.0 0.00 0.00 0.00 75 1016.6
20260510043523 50 7 8.0 15.0 0.00 0.00 0.00 75 1016.5
20260510043002 50 13 6.0 16.0 0.00 0.00 0.00 75 1016.6
20260510042523 51 12 6.0 16.0 0.00 0.00 0.00 75 1016.6
20260510042023 51 13 6.0 15.0 0.00 0.00 0.00 74 1016.5
20260510041502 51 14 7.0 16.0 0.00 0.00 0.00 74 1016.5
20260510041002 51 8 7.0 16.0 0.00 0.00 0.00 74 1016.6
20260510040502 51 6 7.0 17.0 0.00 0.00 0.00 74 1016.6
20260510040002 51 6 8.0 18.0 0.00 0.00 0.00 74 1016.7
20260510035502 51 8 8.0 18.0 0.00 0.00 0.00 74 1016.7
20260510035002 52 12 8.0 17.0 0.00 0.00 0.00 73 1016.9
20260510034523 52 11 7.0 17.0 0.00 0.00 0.00 73 1017.0
20260510034002 52 7 6.0 16.0 0.00 0.00 0.00 73 1016.9
20260510033502 52 9 7.0 15.0 0.00 0.00 0.00 72 1016.9
20260510033002 52 12 7.0 15.0 0.00 0.00 0.00 72 1017.0
20260510032523 52 16 6.0 15.0 0.00 0.00 0.00 72 1017.1
20260510032002 52 10 6.0 14.0 0.00 0.00 0.00 71 1017.2
20260510031502 52 9 6.0 14.0 0.00 0.00 0.00 71 1017.3
20260510031023 53 13 5.0 13.0 0.00 0.00 0.00 70 1017.3
20260510030523 53 10 6.0 15.0 0.00 0.00 0.00 69 1017.2
20260510030002 53 11 6.0 15.0 0.00 0.00 0.00 69 1017.2
20260510025502 53 13 6.0 14.0 0.00 0.00 0.00 68 1017.2
20260510025002 54 13 6.0 14.0 0.00 0.00 0.00 68 1017.3
20260510024523 54 18 5.0 16.0 0.00 0.00 0.00 67 1017.2
20260510024002 54 13 5.0 16.0 0.00 0.00 0.00 67 1017.2
20260510023502 54 8 6.0 16.0 0.00 0.00 0.00 67 1017.1
20260510023002 54 8 8.0 19.0 0.00 0.00 0.00 67 1017.1
20260510022502 55 6 8.0 19.0 0.00 0.00 0.00 66 1017.1
20260510022023 55 2 7.0 16.0 0.00 0.00 0.00 67 1017.0
20260510021502 55 4 6.0 16.0 0.00 0.00 0.00 66 1017.1
20260510021023 55 3 5.0 13.0 0.00 0.00 0.00 65 1017.1
20260510020502 56 7 5.0 13.0 0.00 0.00 0.00 65 1017.0
20260510020002 56 10 5.0 12.0 0.00 0.00 0.00 64 1017.0
20260510015523 56 7 5.0 11.0 0.00 0.00 0.00 63 1017.2
20260510015002 56 10 6.0 16.0 0.00 0.00 0.00 62 1017.1
20260510014502 56 4 6.0 16.0 0.00 0.00 0.00 62 1017.1
20260510014002 56 3 6.0 14.0 0.00 0.00 0.00 62 1017.0
20260510013502 56 12 6.0 15.0 0.00 0.00 0.00 61 1016.9
20260510013002 56 12 7.0 15.0 0.00 0.00 0.00 61 1016.9
20260510012502 57 8 6.0 16.0 0.00 0.00 0.00 61 1016.9
20260510012002 57 12 6.0 16.0 0.00 0.00 0.00 61 1017.0
20260510011523 57 12 6.0 16.0 0.00 0.00 0.00 61 1016.9
20260510011002 57 11 7.0 15.0 0.00 0.00 0.00 60 1016.9
20260510010502 57 10 6.0 15.0 0.00 0.00 0.00 60 1017.0
20260510010023 57 10 6.0 15.0 0.00 0.00 0.00 61 1017.0
20260510005502 57 8 5.0 11.0 0.00 0.00 0.00 61 1017.1
20260510005002 57 9 6.0 15.0 0.00 0.00 0.00 61 1017.1
20260510004502 57 6 6.0 15.0 0.00 0.00 0.00 60 1017.2
20260510004023 57 8 5.0 12.0 0.00 0.00 0.00 61 1017.2
20260510003502 57 19 4.0 12.0 0.00 0.00 0.00 61 1017.2
20260510003003 57 7 5.0 13.0 0.00 0.00 0.00 61 1017.2
20260510002502 57 1 5.0 13.0 0.00 0.00 0.00 62 1017.2
20260510002002 57 8 4.0 12.0 0.00 0.00 0.00 64 1017.1
20260510001523 57 6 5.0 12.0 0.00 0.00 0.00 64 1017.1
20260510001002 57 4 5.0 13.0 0.00 0.00 0.00 65 1017.1
20260510000502 57 5 5.0 13.0 0.00 0.00 0.00 65 1017.1
20260510000002 57 2 5.0 12.0 0.00 0.00 0.00 65 1017.2
20260509235502 57 359 4.0 12.0 0.00 0.00 0.00 66 1017.2
20260509235002 57 1 4.0 10.0 0.00 0.00 0.00 66 1017.3
20260509234502 57 11 3.0 9.0 0.00 0.00 0.00 65 1017.4
20260509234002 57 18 3.0 6.0 0.00 0.00 0.00 64 1017.4
20260509233523 57 23 2.0 6.0 0.00 0.00 0.00 64 1017.3
20260509233002 57 21 2.0 9.0 0.00 0.00 0.00 65 1017.1
20260509232502 57 19 2.0 9.0 0.00 0.00 0.00 65 1016.9
20260509232002 57 25 2.0 6.0 0.00 0.00 0.00 66 1016.9
20260509231502 57 37 2.0 9.0 0.00 0.00 0.00 67 1017.0
20260509231023 57 33 2.0 9.0 0.00 0.00 0.00 67 1016.9
20260509230502 57 31 2.0 8.0 0.00 0.00 0.00 68 1016.9
20260509230002 57 38 2.0 6.0 0.00 0.00 0.00 69 1016.9
20260509225502 57 32 3.0 6.0 0.00 0.00 0.00 69 1016.9
20260509225002 57 21 3.0 8.0 0.00 0.00 0.00 70 1016.9
20260509224502 57 16 3.0 8.0 0.00 0.00 0.00 70 1016.8
20260509224002 57 16 2.0 8.0 0.00 0.00 0.00 71 1016.8
20260509223523 57 21 1.0 5.0 0.00 0.00 0.00 71 1016.5
20260509223002 57 28 1.0 6.0 0.00 0.00 0.00 71 1016.5
20260509222502 57 24 2.0 6.0 0.00 0.00 0.00 71 1016.6
20260509222002 57 20 2.0 5.0 0.00 0.00 0.00 72 1016.6
20260509221502 57 29 1.0 4.0 0.00 0.00 0.00 72 1016.6
20260509221002 57 39 1.0 3.0 0.00 0.00 0.00 72 1016.7
20260509220502 57 34 1.0 4.0 0.00 0.00 0.00 72 1016.7
20260509220002 57 47 2.0 7.0 0.00 0.00 0.00 72 1016.6
20260509215502 57 45 2.0 7.0 0.00 0.00 0.00 72 1016.6
20260509215002 58 35 2.0 4.0 0.00 0.00 0.00 72 1016.5
20260509214523 58 25 2.0 6.0 0.00 0.00 0.00 72 1016.5
20260509214002 58 8 2.0 6.0 0.00 0.00 0.00 72 1016.4
20260509213502 57 10 2.0 5.0 0.00 0.00 0.00 72 1016.4
20260509213002 58 25 2.0 5.0 0.00 0.00 0.00 72 1016.5
20260509212523 58 31 1.0 3.0 0.00 0.00 0.00 72 1016.3
20260509212002 58 11 1.0 4.0 0.00 0.00 0.00 72 1016.4
20260509211502 58 16 2.0 4.0 0.00 0.00 0.00 72 1016.3
20260509211002 58 28 1.0 3.0 0.00 0.00 0.00 72 1016.3
20260509210502 58 37 1.0 3.0 0.00 0.00 0.00 72 1016.3
20260509210002 58 19 1.0 3.0 0.00 0.00 0.00 72 1016.3
20260509205523 58 357 2.0 4.0 0.00 0.00 0.00 72 1016.2
20260509205023 58 345 1.0 4.0 0.00 0.00 0.00 72 1016.2
20260509204502 58 329 0.0 2.0 0.00 0.00 0.00 72 1016.0
20260509204002 58 329 1.0 3.0 0.00 0.00 0.00 72 1016.0
20260509203523 58 326 2.0 4.0 0.00 0.00 0.00 71 1015.9
20260509203002 58 319 1.0 4.0 0.00 0.00 0.00 71 1015.9
20260509202502 59 291 1.0 3.0 0.00 0.00 0.00 70 1015.9
20260509202002 59 242 0.0 2.0 0.00 0.00 0.00 70 1016.0
20260509201502 59 0 0.0 0.0 0.00 0.00 0.00 70 1015.9
20260509201002 59 206 0.0 1.0 0.00 0.00 0.00 70 1015.9
20260509200502 60 206 0.0 1.0 0.00 0.00 0.00 70 1016.0
20260509200003 60 206 0.0 1.0 0.00 0.00 0.00 69 1016.0
20260509195502 60 206 0.0 1.0 0.00 0.00 0.00 69 1016.1
20260509195002 61 205 0.0 2.0 0.00 0.00 0.00 68 1016.1
20260509194502 61 205 0.0 2.0 0.00 0.00 0.00 68 1016.1
20260509194002 62 205 0.0 1.0 0.00 0.00 0.00 68 1016.1
20260509193502 62 205 0.0 1.0 0.00 0.00 0.00 68 1016.0
20260509193002 62 206 0.0 1.0 0.00 0.00 0.00 67 1015.9
20260509192502 62 206 0.0 2.0 0.00 0.00 0.00 67 1015.9
20260509192002 63 205 0.0 2.0 0.00 0.00 0.00 66 1015.9
20260509191502 63 0 0.0 0.0 0.00 0.00 0.00 67 1016.0
20260509191002 63 204 0.0 3.0 0.00 0.00 0.00 67 1015.9
20260509190502 63 197 1.0 3.0 0.00 0.00 0.00 66 1015.9
20260509190002 63 192 1.0 3.0 0.00 0.00 0.00 65 1015.9
20260509185503 64 192 1.0 3.0 0.00 0.00 0.00 65 1015.9
20260509185002 64 189 0.0 1.0 0.00 0.00 0.00 65 1015.8
20260509184502 64 188 0.0 1.0 0.00 0.00 0.00 65 1015.9
20260509184002 64 188 0.0 1.0 0.00 0.00 0.00 63 1015.9
20260509183502 65 188 0.0 1.0 0.00 0.00 0.00 62 1015.9
20260509183002 65 188 0.0 1.0 0.00 0.00 0.00 62 1016.0
20260509182503 65 188 1.0 3.0 0.00 0.00 0.00 61 1016.1
20260509182023 65 181 1.0 4.0 0.00 0.00 0.00 60 1016.0
20260509181502 66 166 1.0 4.0 0.00 0.00 0.00 59 1016.0
20260509181002 66 155 0.0 2.0 0.00 0.00 0.00 59 1016.1
20260509180502 66 158 0.0 3.0 0.00 0.00 0.00 59 1016.1
20260509180002 67 166 0.0 3.0 0.00 0.00 0.00 59 1016.1
20260509175523 67 172 1.0 3.0 0.00 0.00 0.00 60 1016.0
20260509175002 67 158 1.0 3.0 0.00 0.00 0.00 58 1016.1
20260509174503 67 63 0.0 1.0 0.00 0.00 0.00 59 1016.1
20260509174003 67 63 0.0 1.0 0.00 0.00 0.00 60 1015.9
20260509173502 68 63 0.0 2.0 0.00 0.00 0.00 59 1016.0
20260509173002 68 87 1.0 3.0 0.00 0.00 0.00 58 1016.0
20260509172502 68 129 0.0 3.0 0.00 0.00 0.00 60 1015.9
20260509172023 68 146 1.0 2.0 0.00 0.00 0.00 59 1015.9
20260509171523 69 143 1.0 3.0 0.00 0.00 0.00 57 1015.9
20260509171002 69 108 1.0 4.0 0.00 0.00 0.00 57 1015.9
20260509170523 69 89 1.0 4.0 0.00 0.00 0.00 57 1015.9
20260509170002 70 80 1.0 3.0 0.00 0.00 0.00 58 1016.0
20260509165502 70 70 1.0 3.0 0.00 0.00 0.00 56 1016.0
20260509165002 70 65 1.0 3.0 0.00 0.00 0.00 57 1016.1
20260509164502 70 78 1.0 2.0 0.00 0.00 0.00 57 1016.1
20260509164002 70 111 1.0 2.0 0.00 0.00 0.00 56 1016.2
20260509163502 70 164 1.0 3.0 0.00 0.00 0.00 54 1016.2
20260509163002 71 165 1.0 3.0 0.00 0.00 0.00 55 1016.2
20260509162523 71 124 1.0 3.0 0.00 0.00 0.00 54 1016.1
20260509162002 72 128 1.0 3.0 0.00 0.00 0.00 54 1016.2
20260509161502 72 153 1.0 7.0 0.00 0.00 0.00 52 1016.2
20260509161024 73 153 2.0 7.0 0.00 0.00 0.00 52 1016.2
20260509160502 74 140 1.0 5.0 0.00 0.00 0.00 51 1016.2
20260509160023 75 103 1.0 6.0 0.00 0.00 0.00 51 1016.1
20260509155502 75 105 2.0 6.0 0.00 0.00 0.00 49 1016.1
20260509155002 75 130 2.0 7.0 0.00 0.00 0.00 50 1016.0
20260509154502 75 141 2.0 7.0 0.00 0.00 0.00 50 1016.0
20260509154002 75 126 2.0 6.0 0.00 0.00 0.00 52 1016.0
20260509153502 75 118 1.0 4.0 0.00 0.00 0.00 51 1015.9
20260509153023 75 134 1.0 4.0 0.00 0.00 0.00 52 1015.9
20260509152502 76 124 1.0 5.0 0.00 0.00 0.00 50 1016.0
20260509152002 76 91 1.0 5.0 0.00 0.00 0.00 50 1016.1
20260509151502 76 97 2.0 5.0 0.00 0.00 0.00 51 1016.2
20260509151002 76 107 2.0 5.0 0.00 0.00 0.00 51 1016.2
20260509150502 76 130 2.0 5.0 0.00 0.00 0.00 50 1016.2
20260509150002 76 178 2.0 5.0 0.00 0.00 0.00 50 1016.3
20260509145502 77 175 1.0 5.0 0.00 0.00 0.00 46 1016.4
20260509145002 79 105 2.0 5.0 0.00 0.00 0.00 46 1016.4
20260509144502 80 96 2.0 4.0 0.00 0.00 0.00 47 1016.4
20260509144002 79 105 2.0 6.0 0.00 0.00 0.00 47 1016.4
20260509143502 79 110 2.0 6.0 0.00 0.00 0.00 49 1016.5
20260509143024 79 105 2.0 6.0 0.00 0.00 0.00 48 1016.6
20260509142503 80 92 2.0 6.0 0.00 0.00 0.00 47 1016.7
20260509142002 79 98 2.0 6.0 0.00 0.00 0.00 49 1016.7
20260509141502 80 111 2.0 7.0 0.00 0.00 0.00 49 1016.6
20260509141002 80 108 2.0 7.0 0.00 0.00 0.00 47 1016.7
20260509140502 80 94 2.0 6.0 0.00 0.00 0.00 48 1016.7
20260509140002 80 96 2.0 10.0 0.00 0.00 0.00 49 1016.7
20260509135502 80 102 2.0 10.0 0.00 0.00 0.00 47 1016.8
20260509135023 81 98 2.0 6.0 0.00 0.00 0.00 48 1016.7
20260509134523 81 98 3.0 6.0 0.00 0.00 0.00 50 1016.6
20260509134002 81 89 3.0 6.0 0.00 0.00 0.00 50 1016.5
20260509133502 81 89 3.0 6.0 0.00 0.00 0.00 49 1016.7
20260509133023 81 100 3.0 7.0 0.00 0.00 0.00 51 1016.7
20260509132502 80 112 2.0 7.0 0.00 0.00 0.00 51 1016.5
20260509132002 80 115 2.0 7.0 0.00 0.00 0.00 49 1016.4
20260509131502 80 111 2.0 7.0 0.00 0.00 0.00 49 1016.4
20260509131002 80 122 2.0 6.0 0.00 0.00 0.00 51 1016.6
20260509130503 81 105 2.0 6.0 0.00 0.00 0.00 49 1016.6
20260509130003 81 92 3.0 7.0 0.00 0.00 0.00 50 1016.5
20260509125502 80 100 2.0 7.0 0.00 0.00 0.00 48 1016.6
20260509125003 80 100 2.0 6.0 0.00 0.00 0.00 49 1016.7
20260509124503 80 89 2.0 6.0 0.00 0.00 0.00 48 1016.7
20260509124002 80 89 2.0 6.0 0.00 0.00 0.00 50 1016.8
20260509123502 80 102 2.0 5.0 0.00 0.00 0.00 50 1016.9
20260509123002 80 111 2.0 7.0 0.00 0.00 0.00 51 1016.9
20260509122502 79 108 3.0 7.0 0.00 0.00 0.00 48 1017.0
20260509122002 79 92 2.0 6.0 0.00 0.00 0.00 50 1017.0
20260509121524 79 77 2.0 7.0 0.00 0.00 0.00 49 1017.0
20260509121023 79 90 2.0 7.0 0.00 0.00 0.00 52 1016.9
20260509120502 79 100 3.0 6.0 0.00 0.00 0.00 52 1017.0
20260509120003 78 91 3.0 6.0 0.00 0.00 0.00 51 1017.0
20260509115502 77 81 2.0 6.0 0.00 0.00 0.00 52 1017.0
20260509115023 76 90 2.0 4.0 0.00 0.00 0.00 52 1017.0
20260509114503 76 79 2.0 5.0 0.00 0.00 0.00 59 1017.1
20260509114002 75 60 2.0 7.0 0.00 0.00 0.00 57 1017.1
20260509113502 74 45 3.0 9.0 0.00 0.00 0.00 56 1017.2
20260509113003 73 40 3.0 9.0 0.00 0.00 0.00 56 1017.3
20260509112503 72 34 2.0 6.0 0.00 0.00 0.00 59 1017.2
20260509112024 72 25 2.0 6.0 0.00 0.00 0.00 60 1017.3
20260509111502 71 64 3.0 7.0 0.00 0.00 0.00 60 1017.4
20260509111002 70 84 2.0 7.0 0.00 0.00 0.00 60 1017.4
20260509110503 70 68 2.0 5.0 0.00 0.00 0.00 62 1017.5
20260509110002 70 52 2.0 6.0 0.00 0.00 0.00 60 1017.5
20260509105523 70 40 2.0 6.0 0.00 0.00 0.00 62 1017.5
20260509105002 69 43 3.0 6.0 0.00 0.00 0.00 63 1017.5
20260509104524 69 41 2.0 8.0 0.00 0.00 0.00 62 1017.6
20260509104002 69 37 2.0 8.0 0.00 0.00 0.00 65 1017.6